EW8078 Weather Reports


Display with metric or nautical units.
time (UTC)temp
F
wind
direction
speed
MPH
gust
MPH
rain 1hr
in
rain 24hr
in
rain mn
in
humidity
%
barometer
mb
20210620170126 78 360 1.0 7.0 0.00 0.00 0.00 33 1000.8
20210620164634 78 360 2.0 5.0 0.00 0.00 0.00 32 1000.9
20210620163130 77 360 1.0 5.0 0.00 0.00 0.00 36 1000.9
20210620161619 77 360 1.0 4.0 0.00 0.00 0.00 34 1000.8
20210620160056 76 360 1.0 5.0 0.00 0.00 0.00 36 1001.0
20210620154630 76 360 2.0 5.0 0.00 0.00 0.00 35 1001.0
20210620153122 75 360 1.0 7.0 0.00 0.00 0.00 36 1001.2
20210620151601 74 360 1.0 3.0 0.00 0.00 0.00 37 1001.3
20210620150104 72 360 1.0 4.0 0.00 0.00 0.00 41 1001.3
20210620144610 71 360 1.0 4.0 0.00 0.00 0.00 43 1001.3
20210620143123 69 360 1.0 5.0 0.00 0.00 0.00 45 1001.3
20210620141550 69 360 1.0 6.0 0.00 0.00 0.00 45 1001.1
20210620140056 69 360 0.0 4.0 0.00 0.00 0.00 45 1000.7
20210620134549 69 360 0.0 3.0 0.00 0.00 0.00 46 1000.6
20210620133031 70 360 0.0 1.0 0.00 0.00 0.00 47 1000.4
20210620131616 70 360 0.0 2.0 0.00 0.00 0.00 46 1000.1
20210620130021 71 360 0.0 1.0 0.00 0.00 0.00 45 1000.1
20210620124523 74 360 1.0 9.0 0.00 0.00 0.00 40 1000.0
20210620123023 74 360 4.0 14.0 0.00 0.00 0.00 29 999.1
20210620121524 74 360 4.0 10.0 0.00 0.00 0.00 28 998.5
20210620120105 74 360 5.0 13.0 0.00 0.00 0.00 28 998.2
20210620114509 74 360 4.0 11.0 0.00 0.00 0.00 27 998.1
20210620113006 74 360 4.0 16.0 0.00 0.00 0.00 27 998.1
20210620111502 74 360 5.0 14.0 0.00 0.00 0.00 27 997.9
20210620104821 74 360 5.0 13.0 0.00 0.00 0.00 27 997.8
20210620103142 74 360 5.0 13.0 0.00 0.00 0.00 27 997.6
20210620101707 74 360 3.0 13.0 0.00 0.00 0.00 27 997.6
20210620100114 74 360 3.0 16.0 0.00 0.00 0.00 27 997.5
20210620094634 74 360 4.0 14.0 0.00 0.00 0.00 27 997.4
20210620093135 74 360 4.0 10.0 0.00 0.00 0.00 27 997.5
20210620091651 74 360 4.0 9.0 0.00 0.00 0.00 28 997.6
20210620090139 75 360 4.0 10.0 0.00 0.00 0.00 27 997.7
20210620084634 75 360 3.0 14.0 0.00 0.00 0.00 27 997.8
20210620083135 75 360 6.0 12.0 0.00 0.00 0.00 27 997.8
20210620081759 75 360 6.0 14.0 0.00 0.00 0.00 27 997.9
20210620080154 76 360 4.0 9.0 0.00 0.00 0.00 27 998.0
20210620074630 77 360 4.0 14.0 0.00 0.00 0.00 26 998.0
20210620073140 77 360 6.0 15.0 0.00 0.00 0.00 26 998.1
20210620071632 77 360 5.0 12.0 0.00 0.00 0.00 25 997.9
20210620070142 77 360 5.0 14.0 0.00 0.00 0.00 25 997.7
20210620064638 78 360 5.0 17.0 0.00 0.00 0.00 26 997.7
20210620063057 78 360 5.0 15.0 0.00 0.00 0.00 25 997.5
20210620061607 77 360 7.0 17.0 0.00 0.00 0.00 26 997.3
20210620060052 75 360 7.0 15.0 0.00 0.00 0.00 28 997.1
20210620054653 69 360 2.0 10.0 0.00 0.00 0.00 35 997.0
20210620053112 66 360 1.0 8.0 0.00 0.00 0.00 45 997.1
20210620051628 66 360 0.0 3.0 0.00 0.00 0.00 44 997.1
20210620050108 67 360 1.0 3.0 0.00 0.00 0.00 44 997.3
20210620044544 68 360 1.0 2.0 0.00 0.00 0.00 43 997.4
20210620043123 69 360 0.0 0.0 0.00 0.00 0.00 42 997.5
20210620041540 71 360 0.0 0.0 0.00 0.00 0.00 40 997.4
20210620040101 72 360 0.0 2.0 0.00 0.00 0.00 38 997.3
20210620034607 74 360 0.0 3.0 0.00 0.00 0.00 35 997.1
20210620033039 75 360 0.0 0.0 0.00 0.00 0.00 33 996.8
20210620031616 77 360 1.0 3.0 0.00 0.00 0.00 31 996.5
20210620030034 78 360 1.0 4.0 0.00 0.00 0.00 30 996.6
20210620024548 78 360 2.0 6.0 0.00 0.00 0.00 28 996.8
20210620023034 78 360 9.0 17.0 0.00 0.00 0.00 28 996.4
20210620021547 78 360 7.0 16.0 0.00 0.00 0.00 30 996.4
20210620020038 78 360 9.0 19.0 0.00 0.00 0.00 30 996.4
20210620014631 78 360 6.0 17.0 0.00 0.00 0.00 31 996.8
20210620013106 79 360 5.0 20.0 0.00 0.00 0.00 30 997.2
20210620011530 80 360 8.0 22.0 0.00 0.00 0.00 28 997.3
20210620010116 80 262 7.0 24.0 0.00 0.00 0.00 30 997.0
20210620004615 79 231 7.0 13.0 0.00 0.00 0.00 29 997.0
20210620003033 78 360 5.0 12.0 0.00 0.00 0.00 31 996.2
20210620001538 77 266 4.0 15.0 0.00 0.00 0.00 34 996.0
20210620000023 76 360 2.0 5.0 0.00 0.00 0.00 51 997.0
20210619234520 76 314 1.0 4.0 0.00 0.00 0.00 50 998.1
20210619233018 76 26 1.0 4.0 0.00 0.00 0.00 52 998.6
20210619231531 76 360 2.0 6.0 0.00 0.00 0.00 51 998.7
20210619230021 76 360 0.0 5.0 0.00 0.00 0.00 53 999.1
20210619224517 77 360 0.0 4.0 0.00 0.00 0.00 52 998.7
20210619223017 78 360 0.0 5.0 0.00 0.00 0.00 46 998.9
20210619221514 79 55 1.0 6.0 0.00 0.00 0.00 43 999.0
20210619220027 80 32 3.0 9.0 0.00 0.00 0.00 45 998.4
20210619214517 80 360 2.0 10.0 0.00 0.00 0.00 51 998.4
20210619213011 79 360 2.0 5.0 0.00 0.00 0.00 58 998.8
20210619211540 81 338 3.0 10.0 0.00 0.00 0.00 49 999.0
20210619210008 83 276 2.0 8.0 0.00 0.00 0.00 34 999.1
20210619204511 87 360 4.0 15.0 0.00 0.00 0.00 32 998.4
20210619203006 89 6 4.0 10.0 0.00 0.00 0.00 37 998.2
20210619201620 89 11 4.0 11.0 0.00 0.00 0.00 40 998.2
20210619200157 88 360 3.0 8.0 0.00 0.00 0.00 41 998.5
20210619194654 87 14 3.0 9.0 0.00 0.00 0.00 41 998.6
20210619193317 85 63 1.0 6.0 0.00 0.00 0.00 43 998.7
20210619191612 85 199 1.0 3.0 0.00 0.00 0.00 42 998.8
20210619190148 87 103 1.0 5.0 0.00 0.00 0.00 38 998.8
20210619184639 88 61 1.0 5.0 0.00 0.00 0.00 39 998.9
20210619183125 87 50 2.0 8.0 0.00 0.00 0.00 37 999.1
20210619181646 86 43 0.0 2.0 0.00 0.00 0.00 38 999.5
20210619180058 86 59 2.0 6.0 0.00 0.00 0.00 42 999.8
20210619174641 85 360 1.0 4.0 0.00 0.00 0.00 40 1000.1
20210619173035 84 360 1.0 5.0 0.00 0.00 0.00 44 1000.4
20210619171538 83 360 1.0 3.0 0.00 0.00 0.00 44 1000.5